{"data":{"norad_id":53829,"intl_designator":"2022-114M","name":"STARLINK-4759","alt_names":[],"object_type":"PAYLOAD","status":"ACTIVE","operator":null,"country":"US","launch_date":"2022-09-19","launch_site_code":"AFETR","launch_vehicle":null,"mission":null,"orbit_class":"UNKNOWN","rcs_meters":null,"size_class":null,"mass_kg":null,"dimensions":null,"purposes":["comms"],"wikipedia_slug":null,"has_3d_model":false,"image_url":null,"decayed_at":null,"tle_current":{"epoch":"2026-09-20T22:41:19.417632Z","epoch_age_seconds":45623,"freshness":"FRESH","line1":"1 53829U 22114M   26263.94536363  .00000494  00000+0  25060-4 0  9998","line2":"2 53829  53.1610 138.1397 0001224  89.3280 270.7864 15.35402371222434","mean_motion":15.35402371,"eccentricity":0.0001224,"inclination_deg":53.161,"raan_deg":138.1397,"arg_perigee_deg":89.328,"mean_anomaly_deg":270.7864,"bstar":2.506e-5,"rev_number":22243,"period_min":93.786490577199,"perigee_km":458.88864890378,"apogee_km":460.56255766906,"semimajor_km":6837.8626032864,"source":"CELESTRAK","updated_at":"2026-09-21T09:00:32.999543Z"}}}